#timestamp,LO_Frequency,Hit 
1500267615.6,286047014.6,N
1500267635.4,286047013.2,N
1500267655.3,286047011.7,N
1500267675.1,286047013.4,N
1500267676.0,286047013.4,N
1500267695.7,286047012.6,N
1500267715.5,286047014.5,N
1500267735.3,286047019.8,N
1500267755.2,286047021.7,N
1500267775.9,286047023.6,N
1500267795.7,286047017.8,N
1500267815.7,286047014.6,N
1500267835.6,286047017.0,N
1500267855.4,286047016.3,N
1500267875.2,286047017.0,N
1500267895.1,286047016.4,N
1500267896.0,286047016.4,N
1500267915.8,286047016.4,N
1500267935.6,286047015.2,N
1500267955.4,286047012.5,N
1500267975.3,286047014.2,N
1500267995.1,286047017.7,N
1500268015.8,286047014.1,N
1500268035.7,286047014.4,N
1500268055.5,286047012.9,N
1500268075.3,286047012.8,N
1500268095.2,286047016.6,N
1500268115.0,286047018.4,N
1500268115.9,286047018.4,N
1500268135.7,286047016.1,N
1500268155.6,286047014.5,N
1500268175.4,286047014.2,N
1500268195.2,286047018.6,N
1500268215.1,286047017.8,N
1500268216.0,286047017.8,N
1500268235.8,286047022.0,N
1500268255.6,286047023.3,N
1500268275.5,286047022.3,N
1500268295.3,286047023.2,N
1500268315.1,286047021.6,N
1500268335.9,286047021.4,N
1500268355.7,286047023.2,N
1500268375.5,286047025.0,N
1500268395.4,286047024.2,N
1500268415.2,286047026.4,N
1500268435.0,286047021.0,N
1500268435.9,286047021.0,N
1500268455.8,286047019.1,N
1500268475.6,286047022.1,N
1500268495.4,286047024.5,N
1500268515.2,286047026.8,N
1500268535.1,286047023.8,N
1500268536.0,286047023.8,N
1500268555.8,286047026.2,N
1500268575.6,286047025.4,N
1500268595.5,286047029.3,N
1500268615.3,286047027.3,N
1500268635.1,286047029.1,N
1500268655.9,286047026.6,N
1500268675.7,286047025.1,N
1500268695.5,286047022.5,N
1500268715.4,286047022.4,N
1500268735.2,286047019.0,N
1500268755.0,286047021.7,N
1500268755.9,286047021.7,N
1500268775.8,286047022.1,N
1500268795.6,286047024.6,N
1500268815.4,286047026.0,N
1500268835.3,286047025.9,N
1500268855.1,286047024.6,N
1500268856.0,286047024.6,N
1500268875.8,286047026.8,N
1500268895.7,286047024.6,N
1500268915.5,286047024.7,N
1500268935.3,286047027.2,N
1500268955.2,286047028.8,N
1500268975.9,286047028.2,N
1500268995.7,286047029.6,N
1500269015.5,286047031.5,N
1500269035.4,286047028.5,N
1500269055.2,286047031.1,N
1500269075.0,286047031.3,N
1500269075.9,286047031.3,N
1500269095.8,286047029.0,N
1500269115.6,286047029.9,N
1500269135.4,286047027.8,N
1500269155.3,286047026.1,N
1500269175.1,286047028.1,N
1500269195.8,286047029.4,N
1500269215.7,286047027.7,N
1500269235.5,286047025.5,N
1500269255.3,286047028.6,N
1500269275.2,286047029.6,N
1500269295.9,286047025.5,N
1500269315.7,286047027.6,N
1500269335.6,286047030.0,N
1500269355.4,286047028.8,N
1500269375.2,286047029.7,N
1500269395.0,286047029.5,N
1500269396.0,286047029.5,N
1500269415.8,286047029.3,N
1500269435.6,286047029.5,N
1500269455.4,286047029.2,N
1500269475.3,286047031.0,N
1500269495.1,286047029.0,N
1500269515.8,286047027.5,N
1500269535.7,286047028.0,N
1500269555.5,286047025.0,N
1500269575.3,286047024.5,N
1500269595.2,286047024.6,N
1500269615.9,286047026.5,N
1500269635.7,286047026.0,N
1500269655.6,286047028.3,N
1500269675.4,286047022.8,N
1500269695.2,286047020.7,N
1500269715.0,286047023.0,N
1500269716.0,286047023.0,N
1500269735.8,286047024.6,N
1500269755.6,286047024.1,N
1500269775.4,286047026.3,N
1500269795.3,286047025.4,N
1500269815.1,286047027.6,N
1500269835.8,286047027.8,N
1500269855.7,286047025.9,N
1500269875.5,286047025.6,N
1500269895.3,286047025.4,N
1500269915.2,286047029.4,N
1500269935.9,286047028.8,N
1500269955.7,286047028.5,N
1500269975.6,286047027.0,N
1500269995.4,286047029.9,N
1500270015.2,286047025.9,N
1500270035.1,286047024.6,N
1500270036.0,286047024.6,N
1500270055.8,286047028.4,N
1500270075.6,286047028.1,N
1500270095.5,286047025.4,N
1500270115.3,286047023.8,N
1500270135.1,286047026.2,N
1500270155.9,286047028.4,N
1500270175.7,286047028.0,N
1500270195.5,286047028.2,N
1500270215.3,286047026.6,N
1500270235.2,286047029.5,N
1500270255.0,286047029.4,N
1500270255.9,286047029.4,N
1500270275.7,286047029.3,N
1500270295.6,286047027.0,N
1500270315.4,286047029.3,N
1500270335.2,286047029.6,N
1500270355.1,286047029.9,N
1500270356.0,286047029.9,N
1500270375.8,286047025.8,N
1500270395.6,286047025.9,N
1500270415.5,286047027.3,N
1500270435.3,286047027.3,N
1500270455.1,286047027.7,N
1500270475.9,286047029.6,N
1500270495.7,286047028.6,N
1500270515.5,286047028.7,N
1500270535.4,286047030.0,N
1500270555.2,286047029.2,N
1500270575.0,286047029.4,N
1500270575.9,286047029.4,N
1500270595.8,286047028.1,N
1500270615.6,286047025.9,N
1500270635.4,286047025.5,N
1500270655.3,286047028.0,N
1500270675.1,286047028.4,N
1500270676.0,286047028.4,N
1500270695.8,286047026.6,N
1500270715.7,286047024.9,N
1500270735.5,286047023.8,N
1500270755.3,286047025.9,N
1500270775.2,286047026.6,N
1500270795.9,286047025.9,N
1500270815.7,286047026.4,N
1500270835.5,286047024.5,N
1500270855.4,286047026.0,N
1500270875.2,286047026.9,N
1500270895.0,286047027.8,N
1500270895.9,286047027.8,N
1500270915.8,286047029.1,N
1500270935.6,286047031.0,N
1500270955.4,286047031.2,N
1500270975.3,286047029.4,N
1500270995.1,286047025.4,N
1500271015.8,286047026.8,N
1500271035.7,286047028.4,N
1500271055.5,286047029.5,N
1500271075.3,286047025.8,N
1500271095.2,286047028.1,N
1500271115.9,286047029.2,N
1500271135.7,286047029.0,N
1500271155.6,286047029.3,N
1500271175.4,286047029.6,N
1500271195.2,286047028.6,N
